This is the latest recevied weather packets stored in our database for station/object SR9WXP. If no packets are shown the sender has not sent any weather packets the latest 1 day(s).
| Time | Temp. | Humidity | Pressure | Rain* | Wind** | Luminosity | Snow |
|---|---|---|---|---|---|---|---|
| 1777988065 | 17.22° C | 46% | 851.8 hPa | - | 2.68 m/s, 171° | - | - |
| 1777987947 | 17.22° C | 46% | 851.8 hPa | - | 2.68 m/s, 167° | - | - |
| 1777987832 | 17.22° C | 46% | 851.9 hPa | - | 2.68 m/s, 166° | - | - |
| 1777987765 | 17.22° C | 46% | 851.9 hPa | - | 3.58 m/s, 175° | - | - |
| 1777987706 | 17.22° C | 46% | 851.9 hPa | - | 3.58 m/s, 173° | - | - |
| 1777987587 | 17.78° C | 46% | 851.9 hPa | - | 3.13 m/s, 164° | - | - |
| 1777987462 | 17.78° C | 46% | 851.9 hPa | - | 2.68 m/s, 172° | - | - |
| 1777987345 | 18.33° C | 46% | 851.9 hPa | - | 3.13 m/s, 179° | - | - |
| 1777987223 | 18.33° C | 46% | 851.8 hPa | - | 3.58 m/s, 162° | - | - |
| 1777987163 | 18.33° C | 46% | 851.8 hPa | - | 4.02 m/s, 169° | - | - |
| 1777987103 | 18.33° C | 46% | 851.8 hPa | - | 4.47 m/s, 182° | - | - |
| 1777986984 | 18.89° C | 46% | 851.8 hPa | - | 4.47 m/s, 182° | - | - |
| 1777986860 | 18.89° C | 46% | 851.8 hPa | - | 4.02 m/s, 178° | - | - |
| 1777986738 | 18.89° C | 46% | 851.9 hPa | - | 3.58 m/s, 183° | - | - |
| 1777986618 | 18.89° C | 46% | 851.9 hPa | - | 3.58 m/s, 185° | - | - |
| 1777986557 | 18.89° C | 46% | 851.9 hPa | - | 3.58 m/s, 178° | - | - |
| 1777986498 | 18.89° C | 46% | 851.9 hPa | - | 3.13 m/s, 167° | - | - |
| 1777986378 | 18.89° C | 46% | 851.9 hPa | - | 3.13 m/s, 167° | - | - |
| 1777986254 | 18.89° C | 46% | 852 hPa | - | 2.68 m/s, 173° | - | - |
| 1777986134 | 18.89° C | 46% | 852 hPa | - | 2.68 m/s, 192° | - | - |
| 1777986014 | 18.89° C | 46% | 852 hPa | - | 2.68 m/s, 189° | - | - |
| 1777985954 | 18.33° C | 46% | 852 hPa | - | 2.68 m/s, 184° | - | - |
| 1777985894 | 18.33° C | 46% | 852 hPa | - | 3.13 m/s, 180° | - | - |
| 1777985774 | 18.33° C | 46% | 851.9 hPa | - | 3.58 m/s, 176° | - | - |
| 1777985651 | 18.33° C | 46% | 851.8 hPa | - | 4.92 m/s, 174° | - | - |
* Rain since midnight (hover to see other rain measurements)
** Current wind speed in m/s (hover to see current wind gust speed)